Simultaneous Nadir Overpasses (SNOs) Predictions

Prediction of SNOs between AQUA and NPP Satellite Orbit:

Table of predicted SNOs for the next 14.0 days since TLE Epoch: 5/28/2016
Index Date (AQUA) Time (AQUA) Lat,Lon (AQUA) SZA (AQUA ) Date (NPP) Time (NPP) Lat,Lon (NPP) SZA (NPP ) Distance(km) Time Diff (sec)
1 05/29/2016 13:16:29 -73.99, 34.73 101.90 05/29/2016 13:15:39 -73.99, 34.71 101.85 0.73 50
2 05/29/2016 14:05:27 75.40,-154.10 76.52 05/29/2016 14:05:54 75.40,-154.13 76.51 1.02 27
3 06/01/2016 05:32:50 -74.39, 151.53 102.68 06/01/2016 05:32:26 -74.38, 151.46 102.64 2.18 24
4 06/01/2016 06:21:50 75.68, -37.42 75.85 06/01/2016 06:22:43 75.67, -37.49 75.82 2.30 53
5 06/03/2016 21:01:18 69.73, 91.39 82.02 06/03/2016 21:00:04 69.82, 91.01 82.11 17.67 74
6 06/03/2016 21:49:01 -75.28, -90.33 103.98 06/03/2016 21:49:02 -75.29, -90.24 104.01 2.71 1
7 06/03/2016 22:34:45 81.77, 142.88 63.36 06/03/2016 22:35:58 81.20, 142.38 63.12 64.52 73
8 06/06/2016 13:16:31 73.79,-145.73 77.44 06/06/2016 13:15:42 73.78,-145.80 77.51 2.59 49
9 06/06/2016 14:05:21 -75.69, 26.72 104.72 06/06/2016 14:05:48 -75.70, 26.81 104.76 2.55 27
10 06/09/2016 05:32:48 74.31, -28.65 76.65 06/09/2016 05:32:25 74.30, -28.73 76.70 2.68 23




NCC Satellite Simultaneous Nadir Overpasses (SNOs) Prediction Service
